{"data":{"norad_id":57130,"intl_designator":"2023-090AF","name":"STARLINK-6172","alt_names":[],"object_type":"PAYLOAD","status":"ACTIVE","operator":null,"country":"US","launch_date":"2023-06-23","launch_site_code":"AFETR","launch_vehicle":null,"mission":null,"orbit_class":"UNKNOWN","rcs_meters":null,"size_class":null,"mass_kg":null,"dimensions":null,"purposes":["comms"],"wikipedia_slug":null,"has_3d_model":false,"image_url":null,"decayed_at":null,"tle_current":{"epoch":"2026-09-20T11:10:43.088736Z","epoch_age_seconds":123913,"freshness":"FRESH","line1":"1 57130U 23090AF  26263.46577649 -.00000176  00000+0  31229-5 0  9993","line2":"2 57130  43.0024 261.3142 0001722 277.2880  82.7776 15.27572603179930","mean_motion":15.27572603,"eccentricity":0.0001722,"inclination_deg":43.0024,"raan_deg":261.3142,"arg_perigee_deg":277.288,"mean_anomaly_deg":82.7776,"bstar":3.1229e-6,"rev_number":17993,"period_min":94.2672051837,"perigee_km":481.88974534823,"apogee_km":484.25274546795,"semimajor_km":6861.2082454081,"source":"CELESTRAK","updated_at":"2026-09-21T09:00:33.564014Z"}}}